Tucson Davis Monthan, AZ

6:45 PM MST on February 20, 2018 (GMT -0700)
Davis-Monthan Air Force Base

Weather History for KDMA - May, 2013

Change the Weather History Date:

Sunday, May 26, 2013

  Actual Average Record
Temperature  
Mean Temperature 78 °F -  
Max Temperature 93 °F 94 °F 107 °F (1951)
Min Temperature 63 °F 61 °F 49 °F (1955)
Cooling Degree Days 13    
Growing Degree Days 28 (Base 50)    
Moisture  
Dew Point 14 °F    
Average Humidity 10    
Maximum Humidity 23    
Minimum Humidity 4    
Precipitation  
Precipitation 0.00 in - - ()
Sea Level Pressure  
Sea Level Pressure 29.86 in    
Wind  
Wind Speed 8 mph (SSW)    
Max Wind Speed 17 mph    
Max Gust Speed 21 mph    
Visibility 10 miles    
Events      
Averages and records for this station are not official NWS values.
T = Trace of Precipitation, MM = Missing Value Source: NWS Daily Summary

Daily Weather History Graph

Daily Weather History Graph

Search for Another Location

Airport or City:

Trip Planner

Search our weather history database for the weather conditions in past years. The results will help you decide how hot, cold, wet, or windy it might be!

Date:

Astronomy

May. 26, 2013 Rise Set
Actual Time 5:19 AM MST 7:21 PM MST
Civil Twilight 4:52 AM MST 7:49 PM MST
Nautical Twilight 4:18 AM MST 8:23 PM MST
Astronomical Twilight 3:42 AM MST 8:59 PM MST
Moon 9:14 PM MST (5/26) 6:51 AM MST (5/26)
Length of Visible Light 14h 57m
Length of Day
14h 02m
Waning Gibbous, 96% of the Moon is Illuminated
May 26
Waning Gibbous
May 31
Last Quarter
Jun 8
New
Jun 16
First Quarter
Jun 23
Full

Hourly Weather History & Observations

Time (MST) Temp. Dew Point Humidity Pressure Visibility Wind Dir Wind Speed Gust Speed Precip Events Conditions
12:58 AM 70.2 °F 23.9 °F 18% 29.85 in 10.0 mi ESE 4.6 mph - N/A   Clear
1:58 AM 68.7 °F 23.9 °F 18% 29.86 in 10.0 mi SE 4.6 mph - N/A   Clear
2:58 AM 66.6 °F 25.3 °F 21% 29.86 in 10.0 mi SE 4.6 mph - N/A   Clear
3:58 AM 64.9 °F 25.5 °F 23% 29.86 in 10.0 mi ESE 5.8 mph - N/A   Clear
4:58 AM 64.9 °F 23.2 °F 20% 29.85 in 10.0 mi SE 10.4 mph - N/A   Clear
5:58 AM 63.9 °F 24.3 °F 22% 29.87 in 10.0 mi South 5.8 mph - N/A   Clear
6:58 AM 69.4 °F 24.6 °F 19% 29.88 in 10.0 mi SSE 5.8 mph - N/A   Clear
7:58 AM 74.3 °F 24.8 °F 16% 29.90 in 10.0 mi SE 6.9 mph - N/A   Clear
8:58 AM 79.3 °F 23.0 °F 12% 29.89 in 10.0 mi Variable 3.5 mph - N/A   Clear
9:58 AM 83.1 °F 20.3 °F 10% 29.89 in 10.0 mi SW 5.8 mph - N/A   Clear
10:58 AM 86.5 °F 14.5 °F 7% 29.88 in 10.0 mi SSE 10.4 mph - N/A   Partly Cloudy
11:58 AM 89.4 °F 14.5 °F 6% 29.86 in 10.0 mi SW 11.5 mph - N/A   Clear
12:58 PM 92.1 °F 12.4 °F 5% 29.86 in 10.0 mi SSW 17.3 mph 20.7 mph N/A   Clear
1:51 PM 91.4 °F 12.2 °F 5% 29.96 in 10.0 mi SW 15.0 mph 20.7 mph N/A   Partly Cloudy
1:58 PM 92.3 °F 12.6 °F 5% 29.84 in 10.0 mi SW 12.7 mph 20.7 mph N/A   Clear
2:58 PM 93.0 °F 8.1 °F 4% 29.83 in 10.0 mi WSW 11.5 mph - N/A   Clear
3:28 PM 93.2 °F 8.6 °F 4% 29.94 in 10.0 mi WSW 13.8 mph - N/A   Clear
3:52 PM 93.2 °F 1.4 °F 4% 29.93 in 10.0 mi WSW 12.7 mph - N/A   Clear
3:58 PM 93.4 °F 1.9 °F 4% 29.81 in 10.0 mi SW 11.5 mph 19.6 mph N/A   Clear
4:58 PM 92.3 °F 1.2 °F 4% 29.79 in 10.0 mi WSW 10.4 mph - N/A   Clear
5:58 PM 91.2 °F 6.8 °F 4% 29.79 in 10.0 mi West 17.3 mph 19.6 mph N/A   Clear
6:58 PM 88.9 °F 5.0 °F 4% 29.78 in 10.0 mi WSW 13.8 mph - N/A   Clear
7:58 PM 85.3 °F 7.3 °F 5% 29.81 in 10.0 mi West 9.2 mph - N/A   Clear
8:58 PM 81.9 °F 11.7 °F 7% 29.83 in 10.0 mi West 8.1 mph - N/A   Clear
9:58 PM 77.4 °F 10.8 °F 8% 29.86 in 10.0 mi Calm Calm - N/A   Clear
10:58 PM 72.7 °F 11.1 °F 9% 29.86 in 10.0 mi SSW 2.3 mph - N/A   Clear
11:58 PM 69.3 °F 10.8 °F 10% 29.85 in 10.0 mi SE 3.5 mph - N/A   Clear